Location: Delettes
(50.6178°N, 2.2123°E)
Time: 23:27:07
(UTC+00:00)

Cosmos 2297 Rocket - Pass Details

Date: 27 February 2020
Orbit: 838 x 844 km, 71.0° (Epoch: 09 April)

Event Time Altitude Azimuth Distance (km) Brightness Sun altitude
Rises 17:52:13 0° 332° (NNW) 3,415 5.7 -4.6°
Reaches altitude 10° 17:55:19 10° 348° (NNW) 2,478 4.7 -5.1°
Maximum altitude 17:59:33 21° 36° (NE) 1,823 3.6 -5.7°
Drops below altitude 10° 18:03:46 10° 85° (E) 2,470 3.9 -6.4°
Enters shadow 18:04:28 - 89° (E) 2,667 4.1 -6.5°
